Location: Bergnerzell
(49.1816°N, 10.2565°E)
Time: 02:49:42
(UTC+00:00)

Cosmos 2333 Rocket - Pass Details

Date: 23 May 2024
Orbit: 839 x 863 km, 70.8° (Epoch: 13 June)

Event Time Altitude Azimuth Distance (km) Brightness Sun altitude
Rises 00:46:06 0° 333° (NNW) 3,423 6.0 -17.3°
Reaches altitude 10° 00:48:42 10° 341° (NNW) 2,488 5.3 -17.2°
Maximum altitude 00:54:07 42° 52° (NE) 1,206 3.5 -16.8°
Drops below altitude 10° 00:59:32 10° 122° (ESE) 2,490 4.6 -16.5°
Sets 01:02:07 0° 130° (SE) 3,426 5.2 -16.3°
